EA4BPO Weather Reports


Display with metric or nautical units.
time (UTC)temp
F
wind
direction
speed
MPH
gust
MPH
rain 1hr
in
rain 24hr
in
rain mn
in
humidity
%
barometer
mb
20260507132004 51 129 6.0 15.0 0.12 0.12 0.12 91 1010.6
20260507131504 51 96 8.0 17.0 0.12 0.12 0.12 90 1010.7
20260507131004 52 87 8.0 17.0 0.12 0.12 0.12 90 1010.3
20260507130504 53 86 7.0 16.0 0.12 0.12 0.12 89 1009.8
20260507130004 52 115 8.0 16.0 0.11 0.11 0.11 87 1009.9
20260507125525 52 161 7.0 15.0 0.10 0.10 0.11 85 1010.4
20260507125004 53 146 7.0 17.0 0.07 0.07 0.07 83 1010.6
20260507124504 54 91 7.0 17.0 0.05 0.05 0.05 83 1010.3
20260507124004 55 88 9.0 18.0 0.03 0.03 0.03 80 1009.9
20260507123504 56 85 8.0 18.0 0.03 0.03 0.03 78 1009.7
20260507123025 58 87 5.0 15.0 0.02 0.02 0.02 80 1009.7
20260507122525 61 122 3.0 11.0 0.01 0.01 0.01 72 1009.5
20260507122004 62 176 2.0 6.0 0.00 0.00 0.00 65 1009.8
20260507121504 62 144 2.0 7.0 0.00 0.00 0.00 63 1009.9
20260507121004 62 100 3.0 7.0 0.00 0.00 0.00 62 1009.5
20260507120525 63 98 3.0 8.0 0.00 0.00 0.00 61 1009.6
20260507120005 63 96 3.0 8.0 0.00 0.00 0.00 61 1009.9
20260507115525 63 89 3.0 7.0 0.00 0.00 0.00 62 1009.8
20260507115004 63 84 2.0 7.0 0.00 0.00 0.00 61 1009.7
20260507114525 64 79 2.0 6.0 0.00 0.00 0.00 60 1009.7
20260507114004 62 79 2.0 4.0 0.00 0.00 0.00 63 1009.8
20260507113504 61 64 2.0 6.0 0.00 0.00 0.00 64 1009.8
20260507113004 61 37 2.0 6.0 0.00 0.00 0.00 65 1009.9
20260507112504 61 30 2.0 4.0 0.00 0.00 0.00 66 1010.1
20260507112004 61 51 2.0 6.0 0.00 0.00 0.00 65 1010.0
20260507111506 61 67 2.0 6.0 0.00 0.00 0.00 65 1010.1
20260507111004 61 115 3.0 8.0 0.00 0.00 0.00 66 1010.3
20260507110504 61 155 3.0 8.0 0.00 0.00 0.00 66 1010.4
20260507110004 61 101 3.0 8.0 0.00 0.00 0.00 66 1010.3
20260507105504 61 87 3.0 8.0 0.00 0.00 0.00 66 1010.4
20260507105004 61 108 2.0 4.0 0.00 0.00 0.00 65 1010.4
20260507104505 61 88 2.0 4.0 0.00 0.00 0.00 66 1010.5
20260507104025 61 14 2.0 4.0 0.00 0.00 0.00 66 1010.5
20260507103504 60 31 3.0 7.0 0.00 0.00 0.00 68 1010.5
20260507103004 59 44 3.0 7.0 0.00 0.00 0.00 68 1010.7
20260507102504 60 66 2.0 7.0 0.00 0.00 0.00 67 1010.6
20260507102006 60 89 2.0 6.0 0.00 0.00 0.00 68 1010.8
20260507101525 60 112 2.0 6.0 0.00 0.00 0.00 68 1011.0
20260507101004 60 114 3.0 7.0 0.00 0.00 0.00 67 1011.1
20260507100504 59 92 3.0 9.0 0.00 0.00 0.00 69 1011.3
20260507100005 59 66 3.0 9.0 0.00 0.00 0.00 68 1011.1
20260507095504 59 75 2.0 6.0 0.00 0.00 0.00 70 1010.8
20260507095004 59 84 2.0 6.0 0.00 0.00 0.00 69 1010.7
20260507094525 58 80 3.0 7.0 0.00 0.00 0.00 70 1011.1
20260507094004 58 85 2.0 7.0 0.00 0.00 0.00 70 1010.8
20260507093504 59 77 3.0 8.0 0.00 0.00 0.00 69 1011.1
20260507093004 57 70 4.0 8.0 0.00 0.00 0.00 72 1011.1
20260507092504 57 65 3.0 8.0 0.00 0.00 0.00 71 1011.1
20260507092004 57 71 2.0 7.0 0.00 0.00 0.00 71 1011.1
20260507091504 58 83 2.0 7.0 0.00 0.00 0.00 69 1011.2
20260507091004 59 89 2.0 8.0 0.00 0.00 0.00 68 1011.1
20260507090504 58 77 2.0 8.0 0.00 0.00 0.00 70 1011.1
20260507090005 57 67 3.0 10.0 0.00 0.00 0.00 72 1011.1
20260507085504 56 61 4.0 10.0 0.00 0.00 0.00 72 1010.7
20260507085004 56 52 4.0 8.0 0.00 0.00 0.00 73 1011.0
20260507084504 57 48 3.0 8.0 0.00 0.00 0.00 72 1011.1
20260507084004 57 46 3.0 9.0 0.00 0.00 0.00 71 1010.8
20260507083504 56 52 4.0 9.0 0.00 0.00 0.00 73 1010.8
20260507083004 56 56 3.0 7.0 0.00 0.00 0.00 72 1011.0
20260507082504 56 62 3.0 7.0 0.00 0.00 0.00 72 1010.8
20260507082004 55 64 3.0 8.0 0.00 0.00 0.00 74 1011.0
20260507081525 54 62 3.0 8.0 0.00 0.00 0.00 75 1011.2
20260507081004 54 57 3.0 7.0 0.00 0.00 0.00 75 1011.1
20260507080525 53 56 3.0 7.0 0.00 0.00 0.00 76 1011.1
20260507080004 53 52 3.0 7.0 0.00 0.00 0.00 77 1011.1
20260507075525 54 45 2.0 7.0 0.00 0.00 0.00 76 1011.4
20260507075025 53 44 2.0 9.0 0.00 0.00 0.00 77 1010.8
20260507074525 53 37 3.0 10.0 0.00 0.00 0.00 77 1010.7
20260507074025 53 35 4.0 10.0 0.00 0.00 0.00 77 1011.0
20260507073504 53 40 4.0 9.0 0.00 0.00 0.00 77 1010.6
20260507073004 53 39 3.0 8.0 0.00 0.00 0.00 76 1010.7
20260507072504 53 32 4.0 8.0 0.00 0.00 0.00 76 1010.7
20260507072004 53 35 4.0 10.0 0.00 0.00 0.00 77 1010.7
20260507071504 53 55 4.0 10.0 0.00 0.00 0.00 77 1010.8
20260507071025 53 62 4.0 8.0 0.00 0.00 0.00 77 1010.7
20260507070504 53 60 4.0 8.0 0.00 0.00 0.00 77 1011.1
20260507070025 53 52 3.0 8.0 0.00 0.00 0.00 77 1011.0
20260507065504 53 48 3.0 8.0 0.00 0.00 0.00 77 1010.7
20260507065025 53 58 4.0 8.0 0.00 0.00 0.00 77 1010.7
20260507064525 53 55 3.0 8.0 0.00 0.00 0.00 77 1010.8
20260507064004 53 50 2.0 7.0 0.00 0.00 0.00 77 1010.6
20260507063504 53 51 3.0 7.0 0.00 0.00 0.00 77 1010.5
20260507063004 53 44 3.0 8.0 0.00 0.00 0.00 78 1010.4
20260507062504 52 37 3.0 8.0 0.00 0.00 0.00 78 1010.3
20260507062025 52 40 3.0 8.0 0.00 0.00 0.00 78 1010.4
20260507061504 52 39 3.0 7.0 0.00 0.00 0.00 78 1010.3
20260507061004 53 45 3.0 7.0 0.00 0.00 0.00 78 1010.6
20260507060504 52 48 3.0 9.0 0.00 0.00 0.00 78 1010.3
20260507060025 52 38 4.0 9.0 0.00 0.00 0.00 78 1010.2
20260507055504 52 28 4.0 7.0 0.00 0.00 0.00 79 1010.4
20260507055004 52 27 4.0 7.0 0.00 0.00 0.00 79 1010.4
20260507054504 52 24 4.0 7.0 0.00 0.00 0.00 79 1010.1
20260507054004 52 22 4.0 8.0 0.00 0.00 0.00 79 1010.0
20260507053525 52 27 4.0 8.0 0.00 0.00 0.00 79 1009.9
20260507053005 52 25 4.0 8.0 0.00 0.00 0.00 79 1009.9
20260507052504 52 23 4.0 7.0 0.00 0.00 0.00 79 1009.9
20260507052025 52 23 4.0 8.0 0.00 0.00 0.00 79 1009.8
20260507051504 51 21 4.0 8.0 0.00 0.00 0.00 79 1010.1
20260507051004 51 22 4.0 7.0 0.00 0.00 0.00 79 1010.0
20260507050504 51 22 4.0 7.0 0.00 0.00 0.00 79 1010.1
20260507050005 51 19 4.0 7.0 0.00 0.00 0.00 79 1009.9
20260507045504 51 17 3.0 6.0 0.00 0.00 0.00 79 1009.9
20260507045004 51 19 3.0 6.0 0.00 0.00 0.00 79 1010.1
20260507044525 51 18 3.0 6.0 0.00 0.00 0.00 79 1009.9
20260507044004 51 19 3.0 7.0 0.00 0.00 0.00 79 1010.0
20260507043504 51 25 3.0 7.0 0.00 0.00 0.00 79 1010.0
20260507043004 51 29 3.0 7.0 0.00 0.00 0.00 79 1009.9
20260507042504 51 25 3.0 7.0 0.00 0.00 0.00 79 1010.0
20260507042004 51 23 4.0 8.0 0.00 0.00 0.00 78 1010.0
20260507041504 51 21 4.0 8.0 0.00 0.00 0.00 78 1010.1
20260507041004 51 23 4.0 9.0 0.00 0.00 0.00 78 1010.0
20260507040504 51 27 4.0 9.0 0.00 0.00 0.00 78 1009.8
20260507040025 51 28 4.0 8.0 0.00 0.00 0.00 78 1009.9
20260507035504 51 30 4.0 8.0 0.00 0.00 0.00 78 1010.0
20260507035004 51 27 4.0 7.0 0.00 0.00 0.00 77 1010.1
20260507034525 51 27 3.0 7.0 0.00 0.00 0.00 77 1009.9
20260507034004 51 25 3.0 7.0 0.00 0.00 0.00 77 1010.3
20260507033504 51 22 4.0 7.0 0.00 0.00 0.00 76 1010.1
20260507033025 51 24 3.0 7.0 0.00 0.00 0.00 76 1010.0
20260507032504 51 25 3.0 7.0 0.00 0.00 0.00 76 1010.0
20260507032004 52 19 3.0 7.0 0.00 0.00 0.00 75 1009.9
20260507031504 52 16 3.0 7.0 0.00 0.00 0.00 75 1010.1
20260507031004 52 13 3.0 8.0 0.00 0.00 0.00 74 1010.1
20260507030504 52 7 3.0 8.0 0.00 0.00 0.00 74 1010.0
20260507030004 52 9 3.0 7.0 0.00 0.00 0.00 74 1010.0
20260507025525 52 22 3.0 7.0 0.00 0.00 0.00 73 1009.9
20260507025025 53 27 3.0 8.0 0.00 0.00 0.00 73 1009.9
20260507024504 53 26 4.0 8.0 0.00 0.00 0.00 73 1010.0
20260507024004 53 25 4.0 7.0 0.00 0.00 0.00 72 1010.0
20260507023504 53 21 3.0 7.0 0.00 0.00 0.00 72 1009.8
20260507023004 53 28 3.0 6.0 0.00 0.00 0.00 72 1010.0
20260507022504 53 36 3.0 6.0 0.00 0.00 0.00 72 1010.0
20260507022004 53 35 2.0 6.0 0.00 0.00 0.00 71 1010.1
20260507021504 53 36 2.0 6.0 0.00 0.00 0.00 71 1010.1
20260507021004 53 35 2.0 6.0 0.00 0.00 0.00 70 1009.8
20260507020504 53 33 2.0 6.0 0.00 0.00 0.00 69 1009.9
20260507020004 53 38 3.0 6.0 0.00 0.00 0.00 69 1009.9
20260507015504 53 48 3.0 7.0 0.00 0.00 0.00 69 1009.9
20260507015004 54 51 3.0 7.0 0.00 0.00 0.00 69 1009.9
20260507014504 54 48 3.0 7.0 0.00 0.00 0.00 69 1009.9
20260507014004 54 52 3.0 6.0 0.00 0.00 0.00 68 1009.9
20260507013525 53 49 4.0 8.0 0.00 0.00 0.00 68 1009.8
20260507013004 53 46 4.0 8.0 0.00 0.00 0.00 67 1009.9
20260507012504 53 46 3.0 7.0 0.00 0.00 0.00 66 1010.0
20260507012004 53 47 3.0 7.0 0.00 0.00 0.00 66 1009.9
20260507010504 53 48 4.0 8.0 0.00 0.00 0.00 65 1009.9
20260507010025 53 44 4.0 9.0 0.00 0.00 0.00 65 1009.9
20260507005525 53 45 5.0 9.0 0.00 0.00 0.00 65 1010.2
20260507005004 53 49 4.0 7.0 0.00 0.00 0.00 65 1010.1
20260507004504 53 44 4.0 8.0 0.00 0.00 0.00 65 1010.2
20260507004004 53 44 4.0 9.0 0.00 0.00 0.00 65 1010.1
20260507003504 53 54 4.0 9.0 0.00 0.00 0.00 64 1010.2
20260507003004 53 59 4.0 9.0 0.00 0.00 0.00 64 1010.3
20260507002504 53 55 4.0 8.0 0.00 0.00 0.00 63 1010.2
20260507002004 54 50 5.0 11.0 0.00 0.00 0.00 62 1010.2
20260507001525 54 51 5.0 11.0 0.00 0.00 0.00 61 1010.2
20260507001004 54 58 5.0 11.0 0.00 0.00 0.00 60 1010.2
20260507000505 54 56 5.0 11.0 0.00 0.00 0.00 60 1010.6
20260507000004 54 44 4.0 9.0 0.00 0.00 0.00 59 1010.0
20260506235504 54 39 4.0 8.0 0.00 0.00 0.00 58 1010.1
20260506235004 55 35 4.0 8.0 0.00 0.00 0.00 58 1009.8
20260506234504 55 29 4.0 8.0 0.00 0.00 0.00 57 1009.9
20260506234004 55 30 4.0 8.0 0.00 0.00 0.00 57 1010.0
20260506233504 55 33 4.0 8.0 0.00 0.00 0.00 56 1010.0
20260506233004 56 36 4.0 9.0 0.00 0.00 0.00 55 1009.9
20260506232504 56 34 5.0 9.0 0.00 0.00 0.00 55 1009.9
20260506232004 56 27 5.0 8.0 0.00 0.00 0.00 54 1009.7
20260506231525 56 27 4.0 8.0 0.00 0.00 0.00 53 1009.7
20260506231004 56 28 4.0 8.0 0.00 0.00 0.00 53 1009.7
20260506230504 57 30 4.0 7.0 0.00 0.00 0.00 52 1009.8
20260506230004 57 31 4.0 8.0 0.00 0.00 0.00 50 1009.8
20260506225504 57 32 4.0 8.0 0.00 0.00 0.00 49 1009.7
20260506225004 58 38 3.0 8.0 0.00 0.00 0.00 47 1009.8
20260506224504 58 37 3.0 6.0 0.00 0.00 0.00 46 1009.9
20260506224004 58 44 3.0 6.0 0.00 0.00 0.00 46 1009.8
20260506223504 58 49 3.0 6.0 0.00 0.00 0.00 46 1009.6
20260506223004 58 49 3.0 6.0 0.00 0.00 0.00 44 1009.8
20260506222525 59 53 3.0 6.0 0.00 0.00 0.00 42 1009.8
20260506222025 59 50 3.0 6.0 0.00 0.00 0.00 42 1009.8
20260506221504 59 47 3.0 7.0 0.00 0.00 0.00 42 1009.8
20260506221004 59 47 2.0 4.0 0.00 0.00 0.00 42 1009.6
20260506220504 59 48 2.0 4.0 0.00 0.00 0.00 42 1009.6
20260506220004 59 50 2.0 4.0 0.00 0.00 0.00 41 1009.9
20260506215504 59 54 3.0 4.0 0.00 0.00 0.00 41 1010.0
20260506215004 59 51 2.0 4.0 0.00 0.00 0.00 41 1009.7
20260506214504 59 49 2.0 4.0 0.00 0.00 0.00 40 1010.1
20260506214004 60 48 1.0 3.0 0.00 0.00 0.00 41 1009.7
20260506213504 60 44 1.0 3.0 0.00 0.00 0.00 41 1009.7
20260506213004 60 48 1.0 2.0 0.00 0.00 0.00 41 1009.8
20260506212525 60 47 1.0 2.0 0.00 0.00 0.00 40 1009.8
20260506212004 60 41 1.0 3.0 0.00 0.00 0.00 40 1009.8
20260506211504 60 43 2.0 3.0 0.00 0.00 0.00 39 1009.8
20260506211004 61 53 2.0 3.0 0.00 0.00 0.00 38 1009.9
20260506210505 61 59 2.0 3.0 0.00 0.00 0.00 38 1009.8
20260506210004 62 60 1.0 2.0 0.00 0.00 0.00 37 1010.0
20260506205525 62 60 1.0 2.0 0.00 0.00 0.00 37 1009.8
20260506205004 62 67 1.0 2.0 0.00 0.00 0.00 37 1009.6
20260506204504 62 71 1.0 2.0 0.00 0.00 0.00 36 1009.7
20260506204004 62 70 1.0 2.0 0.00 0.00 0.00 37 1009.9
20260506203504 62 73 1.0 2.0 0.00 0.00 0.00 37 1009.8
20260506203004 62 77 1.0 2.0 0.00 0.00 0.00 37 1009.6
20260506202504 62 78 1.0 2.0 0.00 0.00 0.00 38 1009.7
20260506202004 62 81 1.0 1.0 0.00 0.00 0.00 38 1009.7
20260506201504 62 76 1.0 2.0 0.00 0.00 0.00 39 1009.7
20260506201025 62 72 1.0 2.0 0.00 0.00 0.00 38 1009.6
20260506200504 62 71 1.0 2.0 0.00 0.00 0.00 37 1009.5
20260506200004 63 72 1.0 2.0 0.00 0.00 0.00 37 1009.5